Flag for Russia Weather past 2 weeks in Novorossiysk, Russia

Now
70 °F

Clear.


Feels Like: 70 °F
Forecast: 69 / 90 °F
Wind: 8 mph from East

Location: Anapa / Vitiazevo

Current Time: Jul 30, 2014 at 12:53:13 AM

Latest Report: Jul 30, 2014 at 12:00 AM


Visibility: 10 mi

Pressure: 29.83 "Hg

Humidity: 50%

Dew point: 50 °F

Location of NovorossiyskLocation

Historic Weather in Novorossiysk — Graph

°F

Novorossiysk temperature yesterday

Maximum temperature yesterday: 91 °F (at 4:00 PM)
Minimum temperature yesterday: 64 °F (at 6:00 AM)
Average temperature yesterday: 79 °F

Past Weeks' High & Low Weather Summary

 TemperatureHumidityPressure
High95 °F (Jul 24, 4:30 PM)100% (Jul 22, 5:00 AM)29.95 "Hg (Jul 22, 5:00 AM)
Low63 °F (Jul 18, 6:00 AM)22% (Jul 29, 2:30 PM)29.65 "Hg (Jul 24, 6:30 PM)
Average79 °F60%29.78 "Hg
* Reported Jul 14 11:00 PM — Jul 29 11:30 PM, Novorossiysk, Weather by CustomWeather, © 2014

Note: Actual official high and low records may vary slightly from our data, if they occured in-between our weather recording intervals... More about our weather records

Advertising

Novorossiysk weather history for previous 24 hours

 ConditionsComfort  
Time TempWeatherWind HumidityBarometerVisibility
11:30 PM
Jul 29
72 °FClear.8 mph50%29.83 "Hg10 mi
11:00 PM70 °FClear.8 mph53%29.83 "Hg10 mi
10:30 PM72 °FClear.6 mph47%29.83 "Hg10 mi
10:00 PM70 °FSunny.8 mph46%29.83 "Hg10 mi
9:30 PM73 °FSunny.8 mph44%29.83 "Hg10 mi
9:00 PM77 °FSunny.8 mph39%29.83 "Hg10 mi
8:30 PM82 °FSunny.8 mph32%29.83 "Hg10 mi
8:00 PM86 °FSunny.13 mph27%29.83 "Hg10 mi
7:30 PM88 °FSunny.13 mph25%29.83 "Hg10 mi
7:00 PM88 °FPassing clouds.15 mph25%29.83 "HgN/A
6:30 PM88 °FSunny.20 mph25%29.83 "Hg10 mi
6:00 PM90 °FSunny.20 mph24%29.83 "Hg10 mi
5:30 PM90 °FSunny.20 mph26%29.83 "Hg10 mi
5:00 PM90 °FSunny.17 mph24%29.86 "Hg10 mi
4:30 PM90 °FSunny.15 mph26%29.83 "Hg10 mi
4:00 PM91 °FSunny.15 mph24%29.86 "Hg10 mi
3:30 PM90 °FSunny.22 mph24%29.86 "Hg10 mi
3:00 PM90 °FSunny.22 mph24%29.86 "Hg10 mi
2:30 PM90 °FSunny.22 mph22%29.86 "Hg10 mi
2:00 PM90 °FSunny.22 mph27%29.86 "Hg10 mi
1:30 PM88 °FSunny.24 mph29%29.86 "Hg10 mi
1:00 PM88 °FSunny.22 mph29%29.86 "Hg10 mi
12:30 PM86 °FSunny.20 mph33%29.86 "Hg10 mi
12:00 PM86 °FPassing clouds.17 mph33%29.86 "HgN/A
11:30 AM84 °FSunny.17 mph35%29.86 "Hg10 mi
11:00 AM82 °FPassing clouds.15 mph40%29.89 "HgN/A
10:30 AM81 °FSunny.15 mph42%29.89 "Hg10 mi
10:00 AM79 °FSunny.15 mph45%29.89 "Hg10 mi
9:30 AM77 °FSunny.20 mph47%29.86 "Hg10 mi
9:00 AM75 °FSunny.17 mph47%29.89 "Hg10 mi
8:30 AM73 °FSunny.15 mph50%29.89 "Hg10 mi
8:00 AM70 °FSunny.13 mph53%29.89 "Hg10 mi
7:30 AM66 °FSunny.13 mph56%29.86 "Hg10 mi
7:00 AM64 °FClear.13 mph56%29.89 "Hg10 mi
6:30 AM64 °FClear.13 mph56%29.89 "Hg10 mi
6:00 AM64 °FClear.8 mph56%29.89 "Hg10 mi
5:00 AM68 °FClear.15 mph49%29.89 "Hg10 mi
4:00 AM68 °FClear.13 mph53%29.89 "Hg10 mi
3:00 AM68 °FClear.10 mph56%29.89 "Hg10 mi
2:00 AM70 °FClear.15 mph57%29.89 "Hg10 mi
12:00 AM73 °FClear.15 mph50%29.92 "Hg10 mi
Weather by CustomWeather, © 2014

See weather overviewHow to use our weather pages